Location: Albuquerque Trailhead
(34.7934°N, 106.3736°W)
Time: 10:17:28
(UTC+00:00)

Exosat Rocket - Pass Details

Date: 23 October 2021
Orbit: 759 x 2516 km, 72.3° (Epoch: 08 December)

Event Time Altitude Azimuth Distance (km) Brightness Sun altitude
Rises 09:40:53 0° 139° (SE) 4,286 7.6 -44.8°
Reaches altitude 10° 09:44:45 10° 119° (ESE) 3,620 7.3 -44.1°
Maximum altitude 09:49:58 17° 83° (E) 3,495 7.3 -43.1°
Drops below altitude 10° 09:56:05 10° 49° (NE) 4,432 7.9 -41.9°
Sets 10:01:36 0° 33° (NNE) 5,746 8.5 -40.8°
